#Datum;Uhrzeit;WR;Pac;DaySum;Status;WR;Pac;DaySum;Status;Pdc1;Udc;Temp;WR;Pac;DaySum;Status;Pdc1;Udc;Temp;WR;Pac;DaySum;Status;Pdc1;Udc;Temp;WR;Pac;DaySum;Status;Pdc1;Pdc2;Udc1;Udc2;Temp;WR;Pac;DaySum;Status;Pdc1;Pdc2;Udc1;Udc2;Temp;WR;Pac;DaySum;Status;Pdc1;Udc;Temp;WR;Pac;DaySum;Status;Pdc1;Udc;Temp;WR;Pac;DaySum;Status;Pdc1;Udc;Temp
02.11.17;23:55:00;1;265;9683;0;2;0;13263;0;0;0;0;3;0;8798;0;0;0;0;4;0;12843;0;0;0;0;5;0;0;0;0;0;0;0;0;6;0;24701;0;0;0;0;0;0;7;0;20520;0;0;0;0;8;0;20253;0;0;0;0;9;0;11154;0;0;0;0
02.11.17;23:50:00;1;248;9660;0;2;0;13263;0;0;0;0;3;0;8798;0;0;0;0;4;0;12843;0;0;0;0;5;0;0;0;0;0;0;0;0;6;0;24701;0;0;0;0;0;0;7;0;20520;0;0;0;0;8;0;20253;0;0;0;0;9;0;11154;0;0;0;0
02.11.17;23:45:00;1;221;9639;0;2;0;13263;0;0;0;0;3;0;8798;0;0;0;0;4;0;12843;0;0;0;0;5;0;0;0;0;0;0;0;0;6;0;24701;0;0;0;0;0;0;7;0;20520;0;0;0;0;8;0;20253;0;0;0;0;9;0;11154;0;0;0;0
02.11.17;23:40:00;1;220;9621;0;2;0;13263;0;0;0;0;3;0;8798;0;0;0;0;4;0;12843;0;0;0;0;5;0;0;0;0;0;0;0;0;6;0;24701;0;0;0;0;0;0;7;0;20520;0;0;0;0;8;0;20253;0;0;0;0;9;0;11154;0;0;0;0
02.11.17;23:35:00;1;220;9602;0;2;0;13263;0;0;0;0;3;0;8798;0;0;0;0;4;0;12843;0;0;0;0;5;0;0;0;0;0;0;0;0;6;0;24701;0;0;0;0;0;0;7;0;20520;0;0;0;0;8;0;20253;0;0;0;0;9;0;11154;0;0;0;0
02.11.17;23:30:00;1;220;9584;0;2;0;13263;0;0;0;0;3;0;8798;0;0;0;0;4;0;12843;0;0;0;0;5;0;0;0;0;0;0;0;0;6;0;24701;0;0;0;0;0;0;7;0;20520;0;0;0;0;8;0;20253;0;0;0;0;9;0;11154;0;0;0;0
02.11.17;23:25:00;1;220;9565;0;2;0;13263;0;0;0;0;3;0;8798;0;0;0;0;4;0;12843;0;0;0;0;5;0;0;0;0;0;0;0;0;6;0;24701;0;0;0;0;0;0;7;0;20520;0;0;0;0;8;0;20253;0;0;0;0;9;0;11154;0;0;0;0
02.11.17;23:20:00;1;220;9547;0;2;0;13263;0;0;0;0;3;0;8798;0;0;0;0;4;0;12843;0;0;0;0;5;0;0;0;0;0;0;0;0;6;0;24701;0;0;0;0;0;0;7;0;20520;0;0;0;0;8;0;20253;0;0;0;0;9;0;11154;0;0;0;0
02.11.17;23:15:00;1;245;9528;0;2;0;13263;0;0;0;0;3;0;8798;0;0;0;0;4;0;12843;0;0;0;0;5;0;0;0;0;0;0;0;0;6;0;24701;0;0;0;0;0;0;7;0;20520;0;0;0;0;8;0;20253;0;0;0;0;9;0;11154;0;0;0;0
02.11.17;23:10:00;1;294;9507;0;2;0;13263;0;0;0;0;3;0;8798;0;0;0;0;4;0;12843;0;0;0;0;5;0;0;0;0;0;0;0;0;6;0;24701;0;0;0;0;0;0;7;0;20520;0;0;0;0;8;0;20253;0;0;0;0;9;0;11154;0;0;0;0
02.11.17;23:05:00;1;382;9482;0;2;0;13263;0;0;0;0;3;0;8798;0;0;0;0;4;0;12843;0;0;0;0;5;0;0;0;0;0;0;0;0;6;0;24701;0;0;0;0;0;0;7;0;20520;0;0;0;0;8;0;20253;0;0;0;0;9;0;11154;0;0;0;0
02.11.17;23:00:00;1;381;9448;0;2;0;13263;0;0;0;0;3;0;8798;0;0;0;0;4;0;12843;0;0;0;0;5;0;0;0;0;0;0;0;0;6;0;24701;0;0;0;0;0;0;7;0;20520;0;0;0;0;8;0;20253;0;0;0;0;9;0;11154;0;0;0;0
02.11.17;22:55:00;1;306;9417;0;2;0;13263;0;0;0;0;3;0;8798;0;0;0;0;4;0;12843;0;0;0;0;5;0;0;2;0;0;0;0;0;6;0;24701;2;0;0;0;0;0;7;0;20520;0;0;0;0;8;0;20253;0;0;0;0;9;0;11154;0;0;0;0
02.11.17;22:50:00;1;308;9391;0;2;0;13263;0;0;0;0;3;0;8798;0;0;0;0;4;0;12843;0;0;0;0;5;0;0;2;0;0;0;0;0;6;0;24701;2;0;0;0;0;0;7;0;20520;0;0;0;0;8;0;20253;0;0;0;0;9;0;11154;0;0;0;0
02.11.17;22:45:00;1;313;9366;0;2;0;13263;0;0;0;0;3;0;8798;0;0;0;0;4;0;12843;0;0;0;0;5;0;0;2;0;0;0;0;0;6;0;24701;2;0;0;0;0;0;7;0;20520;0;0;0;0;8;0;20253;0;0;0;0;9;0;11154;0;0;0;0
02.11.17;22:40:00;1;321;9339;0;2;0;13263;0;0;0;0;3;0;8798;0;0;0;0;4;0;12843;0;0;0;0;5;0;0;2;0;0;0;0;0;6;0;24701;2;0;0;0;0;0;7;0;20520;0;0;0;0;8;0;20253;0;0;0;0;9;0;11154;0;0;0;0
02.11.17;22:35:00;1;312;9312;0;2;0;13263;0;0;0;0;3;0;8798;0;0;0;0;4;0;12843;0;0;0;0;5;0;0;2;0;0;0;0;0;6;0;24701;2;0;0;0;0;0;7;0;20520;0;0;0;0;8;0;20253;0;0;0;0;9;0;11154;0;0;0;0
02.11.17;22:30:00;1;289;9286;0;2;0;13263;0;0;0;0;3;0;8798;0;0;0;0;4;0;12843;0;0;0;0;5;0;0;2;0;0;0;0;0;6;0;24701;2;0;0;0;0;0;7;0;20520;0;0;0;0;8;0;20253;0;0;0;0;9;0;11154;0;0;0;0
02.11.17;22:25:00;1;239;9262;0;2;0;13263;0;0;0;0;3;0;8798;0;0;0;0;4;0;12843;0;0;0;0;5;0;0;2;0;0;0;0;0;6;0;24701;2;0;0;0;0;0;7;0;20520;0;0;0;0;8;0;20253;0;0;0;0;9;0;11154;0;0;0;0
02.11.17;22:20:00;1;256;9242;0;2;0;13263;0;0;0;0;3;0;8798;0;0;0;0;4;0;12843;0;0;0;0;5;0;0;2;0;0;0;0;0;6;0;24701;2;0;0;0;0;0;7;0;20520;0;0;0;0;8;0;20253;0;0;0;0;9;0;11154;0;0;0;0
02.11.17;22:15:00;1;239;9220;0;2;0;13263;0;0;0;0;3;0;8798;0;0;0;0;4;0;12843;0;0;0;0;5;0;0;2;0;0;0;0;0;6;0;24701;2;0;0;0;0;0;7;0;20520;0;0;0;0;8;0;20253;0;0;0;0;9;0;11154;0;0;0;0
02.11.17;22:10:00;1;233;9200;0;2;0;13263;0;0;0;0;3;0;8798;0;0;0;0;4;0;12843;0;0;0;0;5;0;0;2;0;0;0;0;0;6;0;24701;2;0;0;0;0;0;7;0;20520;0;0;0;0;8;0;20253;0;0;0;0;9;0;11154;0;0;0;0
02.11.17;22:05:00;1;219;9181;0;2;0;13263;0;0;0;0;3;0;8798;0;0;0;0;4;0;12843;0;0;0;0;5;0;0;2;0;0;0;0;0;6;0;24701;2;0;0;0;0;0;7;0;20520;0;0;0;0;8;0;20253;0;0;0;0;9;0;11154;0;0;0;0
02.11.17;22:00:00;1;193;9162;0;2;0;13263;0;0;0;0;3;0;8798;0;0;0;0;4;0;12843;0;0;0;0;5;0;0;2;0;0;0;0;0;6;0;24701;2;0;0;0;0;0;7;0;20520;0;0;0;0;8;0;20253;0;0;0;0;9;0;11154;0;0;0;0
02.11.17;21:55:00;1;189;9146;0;2;0;13263;0;0;0;0;3;0;8798;0;0;0;0;4;0;12843;0;0;0;0;5;0;0;2;0;0;0;0;0;6;0;24701;2;0;0;0;0;0;7;0;20520;0;0;0;0;8;0;20253;0;0;0;0;9;0;11154;0;0;0;0
02.11.17;21:50:00;1;190;9130;0;2;0;13263;0;0;0;0;3;0;8798;0;0;0;0;4;0;12843;0;0;0;0;5;0;0;2;0;0;0;0;0;6;0;24701;2;0;0;0;0;0;7;0;20520;0;0;0;0;8;0;20253;0;0;0;0;9;0;11154;0;0;0;0
02.11.17;21:45:00;1;190;9114;0;2;0;13263;0;0;0;0;3;0;8798;0;0;0;0;4;0;12843;0;0;0;0;5;0;0;2;0;0;0;0;0;6;0;24701;2;0;0;0;0;0;7;0;20520;0;0;0;0;8;0;20253;0;0;0;0;9;0;11154;0;0;0;0
02.11.17;21:40:00;1;190;9098;0;2;0;13263;0;0;0;0;3;0;8798;0;0;0;0;4;0;12843;0;0;0;0;5;0;0;2;0;0;0;0;0;6;0;24701;2;0;0;0;0;0;7;0;20520;0;0;0;0;8;0;20253;0;0;0;0;9;0;11154;0;0;0;0
02.11.17;21:35:00;1;193;9082;0;2;0;13263;0;0;0;0;3;0;8798;0;0;0;0;4;0;12843;0;0;0;0;5;0;0;2;0;0;0;0;0;6;0;24701;2;0;0;0;0;0;7;0;20520;0;0;0;0;8;0;20253;0;0;0;0;9;0;11154;0;0;0;0
02.11.17;21:30:00;1;195;9066;0;2;0;13263;0;0;0;0;3;0;8798;0;0;0;0;4;0;12843;0;0;0;0;5;0;0;2;0;0;0;0;0;6;0;24701;2;0;0;0;0;0;7;0;20520;0;0;0;0;8;0;20253;0;0;0;0;9;0;11154;0;0;0;0
02.11.17;21:25:00;1;234;9050;0;2;0;13263;0;0;0;0;3;0;8798;0;0;0;0;4;0;12843;0;0;0;0;5;0;0;2;0;0;0;0;0;6;0;24701;2;0;0;0;0;0;7;0;20520;0;0;0;0;8;0;20253;0;0;0;0;9;0;11154;0;0;0;0
02.11.17;21:20:00;1;235;9030;0;2;0;13263;0;0;0;0;3;0;8798;0;0;0;0;4;0;12843;0;0;0;0;5;0;0;2;0;0;0;0;0;6;0;24701;2;0;0;0;0;0;7;0;20520;0;0;0;0;8;0;20253;0;0;0;0;9;0;11154;0;0;0;0
02.11.17;21:15:00;1;232;9010;0;2;0;13263;0;0;0;0;3;0;8798;0;0;0;0;4;0;12843;0;0;0;0;5;0;0;2;0;0;0;0;0;6;0;24701;2;0;0;0;0;0;7;0;20520;0;0;0;0;8;0;20253;0;0;0;0;9;0;11154;0;0;0;0
02.11.17;21:10:00;1;246;8991;0;2;0;13263;0;0;0;0;3;0;8798;0;0;0;0;4;0;12843;0;0;0;0;5;0;0;2;0;0;0;0;0;6;0;24701;2;0;0;0;0;0;7;0;20520;0;0;0;0;8;0;20253;0;0;0;0;9;0;11154;0;0;0;0
02.11.17;21:05:00;1;303;8970;0;2;0;13263;0;0;0;0;3;0;8798;0;0;0;0;4;0;12843;0;0;0;0;5;0;0;2;0;0;0;0;0;6;0;24701;2;0;0;0;0;0;7;0;20520;0;0;0;0;8;0;20253;0;0;0;0;9;0;11154;0;0;0;0
02.11.17;21:00:00;1;305;8945;0;2;0;13263;0;0;0;0;3;0;8798;0;0;0;0;4;0;12843;0;0;0;0;5;0;0;2;0;0;0;0;0;6;0;24701;2;0;0;0;0;0;7;0;20520;0;0;0;0;8;0;20253;0;0;0;0;9;0;11154;0;0;0;0
02.11.17;20:55:00;1;306;8920;0;2;0;13263;0;0;0;0;3;0;8798;0;0;0;0;4;0;12843;0;0;0;0;5;0;0;2;0;0;0;0;0;6;0;24701;2;0;0;0;0;0;7;0;20520;0;0;0;0;8;0;20253;0;0;0;0;9;0;11154;0;0;0;0
02.11.17;20:50:00;1;308;8894;0;2;0;13263;0;0;0;0;3;0;8798;0;0;0;0;4;0;12843;0;0;0;0;5;0;0;2;0;0;0;0;0;6;0;24701;2;0;0;0;0;0;7;0;20520;0;0;0;0;8;0;20253;0;0;0;0;9;0;11154;0;0;0;0
02.11.17;20:45:00;1;309;8868;0;2;0;13263;0;0;0;0;3;0;8798;0;0;0;0;4;0;12843;0;0;0;0;5;0;0;2;0;0;0;0;0;6;0;24701;2;0;0;0;0;0;7;0;20520;0;0;0;0;8;0;20253;0;0;0;0;9;0;11154;0;0;0;0
02.11.17;20:40:00;1;308;8842;0;2;0;13263;0;0;0;0;3;0;8798;0;0;0;0;4;0;12843;0;0;0;0;5;0;0;2;0;0;0;0;0;6;0;24701;2;0;0;0;0;0;7;0;20520;0;0;0;0;8;0;20253;0;0;0;0;9;0;11154;0;0;0;0
02.11.17;20:35:00;1;283;8816;0;2;0;13263;0;0;0;0;3;0;8798;0;0;0;0;4;0;12843;0;0;0;0;5;0;0;2;0;0;0;0;0;6;0;24701;2;0;0;0;0;0;7;0;20520;0;0;0;0;8;0;20253;0;0;0;0;9;0;11154;0;0;0;0
02.11.17;20:30:00;1;234;8793;0;2;0;13263;0;0;0;0;3;0;8798;0;0;0;0;4;0;12843;0;0;0;0;5;0;0;2;0;0;0;0;0;6;0;24701;2;0;0;0;0;0;7;0;20520;0;0;0;0;8;0;20253;0;0;0;0;9;0;11154;0;0;0;0
02.11.17;20:25:00;1;236;8773;0;2;0;13263;0;0;0;0;3;0;8798;0;0;0;0;4;0;12843;0;0;0;0;5;0;0;2;0;0;0;0;0;6;0;24701;2;0;0;0;0;0;7;0;20520;0;0;0;0;8;0;20253;0;0;0;0;9;0;11154;0;0;0;0
02.11.17;20:20:00;1;192;8753;0;2;0;13263;0;0;0;0;3;0;8798;0;0;0;0;4;0;12843;0;0;0;0;5;0;0;2;0;0;0;0;0;6;0;24701;2;0;0;0;0;0;7;0;20520;0;0;0;0;8;0;20253;0;0;0;0;9;0;11154;0;0;0;0
02.11.17;20:15:00;1;192;8737;0;2;0;13263;0;0;0;0;3;0;8798;0;0;0;0;4;0;12843;0;0;0;0;5;0;0;2;0;0;0;0;0;6;0;24701;2;0;0;0;0;0;7;0;20520;0;0;0;0;8;0;20253;0;0;0;0;9;0;11154;0;0;0;0
02.11.17;20:10:00;1;192;8721;0;2;0;13263;0;0;0;0;3;0;8798;0;0;0;0;4;0;12843;0;0;0;0;5;0;0;2;0;0;0;0;0;6;0;24701;2;0;0;0;0;0;7;0;20520;0;0;0;0;8;0;20253;0;0;0;0;9;0;11154;0;0;0;0
02.11.17;20:05:00;1;192;8705;0;2;0;13263;0;0;0;0;3;0;8798;0;0;0;0;4;0;12843;0;0;0;0;5;0;0;2;0;0;0;0;0;6;0;24701;2;0;0;0;0;0;7;0;20520;0;0;0;0;8;0;20253;0;0;0;0;9;0;11154;0;0;0;0
02.11.17;20:00:00;1;192;8689;0;2;0;13263;0;0;0;0;3;0;8798;0;0;0;0;4;0;12843;0;0;0;0;5;0;0;2;0;0;0;0;0;6;0;24701;2;0;0;0;0;0;7;0;20520;0;0;0;0;8;0;20253;0;0;0;0;9;0;11154;0;0;0;0
02.11.17;19:55:00;1;191;8673;0;2;0;13263;0;0;0;0;3;0;8798;0;0;0;0;4;0;12843;0;0;0;0;5;0;0;2;0;0;0;0;0;6;0;24701;2;0;0;0;0;0;7;0;20520;0;0;0;0;8;0;20253;0;0;0;0;9;0;11154;0;0;0;0
02.11.17;19:50:00;1;192;8657;0;2;0;13263;0;0;0;0;3;0;8798;0;0;0;0;4;0;12843;0;0;0;0;5;0;0;2;0;0;0;0;0;6;0;24701;2;0;0;0;0;0;7;0;20520;0;0;0;0;8;0;20253;0;0;0;0;9;0;11154;0;0;0;0
02.11.17;19:45:00;1;212;8641;0;2;0;13263;0;0;0;0;3;0;8798;0;0;0;0;4;0;12843;0;0;0;0;5;0;0;2;0;0;0;0;0;6;0;24701;2;0;0;0;0;0;7;0;20520;0;0;0;0;8;0;20253;0;0;0;0;9;0;11154;0;0;0;0
02.11.17;19:40:00;1;233;8623;0;2;0;13263;0;0;0;0;3;0;8798;0;0;0;0;4;0;12843;0;0;0;0;5;0;0;2;0;0;0;0;0;6;0;24701;2;0;0;0;0;0;7;0;20520;0;0;0;0;8;0;20253;0;0;0;0;9;0;11154;0;0;0;0
02.11.17;19:35:00;1;235;8603;0;2;0;13263;0;0;0;0;3;0;8798;0;0;0;0;4;0;12843;0;0;0;0;5;0;0;2;0;0;0;0;0;6;0;24701;2;0;0;0;0;0;7;0;20520;0;0;0;0;8;0;20253;0;0;0;0;9;0;11154;0;0;0;0
02.11.17;19:30:00;1;204;8584;0;2;0;13263;0;0;0;0;3;0;8798;0;0;0;0;4;0;12843;0;0;0;0;5;0;0;2;0;0;0;0;0;6;0;24701;2;0;0;0;0;0;7;0;20520;0;0;0;0;8;0;20253;0;0;0;0;9;0;11154;0;0;0;0
02.11.17;19:25:00;1;196;8566;0;2;0;13263;0;0;0;0;3;0;8798;0;0;0;0;4;0;12843;0;0;0;0;5;0;0;2;0;0;0;0;0;6;0;24701;2;0;0;0;0;0;7;0;20520;0;0;0;0;8;0;20253;0;0;0;0;9;0;11154;0;0;0;0
02.11.17;19:20:00;1;191;8550;0;2;0;13263;0;0;0;0;3;0;8798;0;0;0;0;4;0;12843;0;0;0;0;5;0;0;2;0;0;0;0;0;6;0;24701;2;0;0;0;0;0;7;0;20520;0;0;0;0;8;0;20253;0;0;0;0;9;0;11154;0;0;0;0
02.11.17;19:15:00;1;201;8534;0;2;0;13263;0;0;0;0;3;0;8798;0;0;0;0;4;0;12843;0;0;0;0;5;0;0;2;0;0;0;0;0;6;0;24701;2;0;0;0;0;0;7;0;20520;0;0;0;0;8;0;20253;0;0;0;0;9;0;11154;0;0;0;0
02.11.17;19:10:00;1;258;8517;0;2;0;13263;0;0;0;0;3;0;8798;0;0;0;0;4;0;12843;0;0;0;0;5;0;0;2;0;0;0;0;0;6;0;24701;2;0;0;0;0;0;7;0;20520;0;0;0;0;8;0;20253;0;0;0;0;9;0;11154;0;0;0;0
02.11.17;19:05:00;1;259;8495;0;2;0;13263;0;0;0;0;3;0;8798;0;0;0;0;4;0;12843;0;0;0;0;5;0;0;2;0;0;0;0;0;6;0;24701;2;0;0;0;0;0;7;0;20520;0;0;0;0;8;0;20253;0;0;0;0;9;0;11154;0;0;0;0
02.11.17;19:00:00;1;260;8474;0;2;0;13263;0;0;0;0;3;0;8798;0;0;0;0;4;0;12843;0;0;0;0;5;0;0;2;0;0;0;0;0;6;0;24701;2;0;0;0;0;0;7;0;20520;0;0;0;0;8;0;20253;0;0;0;0;9;0;11154;0;0;0;0
02.11.17;18:55:00;1;266;8452;0;2;0;13263;0;0;0;0;3;0;8798;0;0;0;0;4;0;12843;0;0;0;0;5;0;0;2;0;0;0;0;0;6;0;24701;2;0;0;0;0;0;7;0;20520;0;0;0;0;8;0;20253;0;0;0;0;9;0;11154;0;0;0;0
02.11.17;18:50:00;1;302;8429;0;2;0;13263;0;0;0;0;3;0;8798;0;0;0;0;4;0;12843;0;0;0;0;5;0;0;2;0;0;0;0;0;6;0;24701;2;0;0;0;0;0;7;0;20520;0;0;0;0;8;0;20253;0;0;0;0;9;0;11154;0;0;0;0
02.11.17;18:45:00;1;303;8404;0;2;0;13263;0;0;0;0;3;0;8798;0;0;0;0;4;0;12843;0;0;0;0;5;0;0;2;0;0;0;0;0;6;0;24701;2;0;0;0;0;0;7;0;20520;0;0;0;0;8;0;20253;0;0;0;0;9;0;11154;0;0;0;0
02.11.17;18:40:00;1;307;8379;0;2;0;13263;0;0;0;0;3;0;8798;0;0;0;0;4;0;12843;0;0;0;0;5;0;0;2;0;0;0;0;0;6;0;24701;2;0;0;0;0;0;7;0;20520;0;0;0;0;8;0;20253;0;0;0;0;9;0;11154;0;0;0;0
02.11.17;18:35:00;1;223;8353;0;2;0;13263;0;0;0;0;3;0;8798;0;0;0;0;4;0;12843;0;0;0;0;5;0;0;2;0;0;0;0;0;6;0;24701;2;0;0;0;0;0;7;0;20520;0;0;0;0;8;0;20253;0;0;0;0;9;0;11154;0;0;0;0
02.11.17;18:30:00;1;241;8334;0;2;0;13263;0;0;0;0;3;0;8798;0;0;0;0;4;0;12843;0;0;0;0;5;0;0;2;0;0;0;0;0;6;0;24701;2;0;0;0;0;0;7;0;20520;0;0;0;0;8;0;20253;0;0;0;0;9;0;11154;0;0;0;0
02.11.17;18:25:00;1;249;8314;0;2;0;13263;0;0;0;0;3;0;8798;0;0;0;0;4;0;12843;0;0;0;0;5;0;0;2;0;0;0;0;0;6;0;24701;2;0;0;0;0;0;7;0;20520;0;0;0;0;8;0;20253;0;0;0;0;9;0;11154;0;0;0;0
02.11.17;18:20:00;1;264;8293;0;2;0;13263;0;0;0;0;3;0;8798;0;0;0;0;4;0;12843;0;0;0;0;5;0;0;2;0;0;0;0;0;6;0;24701;2;0;0;0;0;0;7;0;20520;0;0;0;0;8;0;20253;0;0;0;0;9;0;11154;0;0;0;0
02.11.17;18:15:00;1;259;8272;0;2;0;13263;0;0;0;0;3;0;8798;0;0;0;0;4;0;12843;0;0;0;0;5;0;0;2;0;0;0;0;0;6;0;24701;2;0;0;0;0;0;7;0;20520;0;0;0;0;8;0;20253;0;0;0;0;9;0;11154;0;0;0;0
02.11.17;18:10:00;1;279;8250;0;2;0;13263;0;0;0;0;3;0;8798;0;0;0;0;4;0;12843;0;0;0;0;5;0;0;2;0;0;0;0;0;6;0;24701;2;0;0;0;0;0;7;0;20520;0;0;0;0;8;0;20253;0;0;0;0;9;0;11154;0;0;0;0
02.11.17;18:05:00;1;257;8229;0;2;0;13263;0;0;0;0;3;0;8798;0;0;0;0;4;0;12843;0;0;0;0;5;0;0;2;0;0;0;0;0;6;0;24701;2;0;0;0;0;0;7;0;20520;0;0;0;0;8;0;20253;0;0;0;0;9;0;11154;0;0;0;0
02.11.17;18:00:00;1;241;8207;0;2;0;13263;0;0;0;0;3;0;8798;0;0;0;0;4;0;12843;0;0;0;0;5;0;0;2;0;0;0;0;0;6;0;24701;2;0;0;0;0;0;7;0;20520;0;0;0;0;8;0;20253;0;0;0;0;9;0;11154;0;0;0;0
02.11.17;17:55:00;1;233;8187;0;2;0;13263;0;0;0;0;3;0;8798;0;0;0;0;4;0;12843;0;0;0;0;5;0;0;2;0;0;0;0;0;6;0;24701;2;0;0;0;0;0;7;0;20520;0;0;0;0;8;0;20253;0;0;0;0;9;0;11154;0;0;0;0
02.11.17;17:50:00;1;231;8167;0;2;0;13263;0;0;0;0;3;0;8798;0;0;0;0;4;0;12843;0;0;0;0;5;0;0;2;0;0;0;0;0;6;0;24701;2;0;0;0;0;0;7;0;20520;0;0;0;0;8;0;20253;0;0;0;0;9;0;11154;0;0;0;0
02.11.17;17:45:00;1;190;8148;0;2;0;13263;0;0;0;0;3;0;8798;0;0;0;0;4;0;12843;0;0;0;0;5;0;0;2;0;0;0;0;0;6;0;24701;2;0;0;0;0;0;7;0;20520;0;0;0;0;8;0;20253;0;0;0;0;9;0;11154;0;0;0;0
02.11.17;17:40:00;1;190;8132;0;2;0;13263;0;0;0;0;3;0;8798;0;0;0;0;4;0;12843;0;0;0;0;5;0;0;2;0;0;0;0;0;6;0;24701;2;0;0;0;0;0;7;0;20520;0;0;0;0;8;0;20253;0;0;0;0;9;0;11154;0;0;0;0
02.11.17;17:35:00;1;191;8116;0;2;0;13263;0;0;0;0;3;0;8798;0;0;0;0;4;0;12843;0;0;0;0;5;0;0;2;0;0;0;0;0;6;0;24701;2;0;0;0;0;0;7;0;20520;0;0;0;0;8;0;20253;0;0;0;0;9;0;11154;0;0;0;0
02.11.17;17:30:00;1;193;8100;0;2;0;13263;0;0;0;0;3;0;8798;0;0;0;0;4;0;12843;0;0;0;0;5;0;0;2;0;0;0;0;0;6;0;24701;2;0;0;0;0;0;7;0;20520;0;0;0;0;8;0;20253;0;0;0;0;9;0;11154;0;0;0;0
02.11.17;17:25:00;1;190;8084;0;2;0;13263;0;0;0;0;3;0;8798;0;0;0;0;4;0;12843;0;0;0;0;5;0;0;2;0;0;0;0;0;6;0;24701;2;0;0;0;0;0;7;0;20520;0;0;0;0;8;0;20253;0;0;0;0;9;0;11154;0;0;0;0
02.11.17;17:20:00;1;231;8068;0;2;0;13263;0;0;0;0;3;0;8798;0;0;0;0;4;0;12843;0;0;0;0;5;0;0;2;0;0;0;0;0;6;0;24701;2;0;0;0;0;0;7;0;20520;0;0;0;0;8;0;20253;0;0;0;0;9;0;11154;0;0;0;0
02.11.17;17:15:00;1;291;8048;0;2;0;13263;0;0;0;0;3;0;8798;0;0;0;0;4;0;12843;0;0;0;0;5;0;0;2;0;0;0;0;0;6;0;24701;2;0;0;0;0;0;7;0;20520;0;0;0;0;8;0;20253;0;0;0;0;9;0;11154;0;0;0;0
02.11.17;17:10:00;1;413;8021;0;2;0;13263;0;0;0;0;3;0;8798;0;0;0;0;4;0;12843;0;0;0;0;5;0;0;2;0;0;0;0;0;6;0;24701;2;0;0;0;0;0;7;0;20520;0;0;0;0;8;0;20253;0;0;0;0;9;0;11154;0;0;0;0
02.11.17;17:05:00;1;423;7987;0;2;0;13263;0;0;0;0;3;0;8798;0;0;0;0;4;0;12843;0;0;0;0;5;0;0;2;0;0;0;0;0;6;0;24701;2;0;0;0;0;0;7;0;20520;0;0;0;0;8;0;20253;0;0;0;0;9;0;11154;0;0;0;0
02.11.17;17:00:00;1;438;7951;0;2;0;13263;0;0;179;10;3;0;8798;0;0;247;15;4;0;12843;0;0;39;12;5;0;0;2;0;0;0;0;0;6;0;24701;2;0;0;0;0;0;7;0;20520;0;0;0;0;8;0;20253;0;0;0;0;9;0;11154;0;0;0;0
02.11.17;16:55:00;1;339;7916;0;2;0;13263;6;0;305;16;3;0;8798;6;0;364;18;4;0;12843;2;0;92;19;5;0;0;2;0;0;0;0;0;6;0;24701;2;3;0;59;87;9;7;0;20520;0;0;0;0;8;0;20253;0;0;0;0;9;0;11154;0;0;0;0
02.11.17;16:50:00;1;387;7889;0;2;0;13263;6;0;340;16;3;0;8798;6;1;410;18;4;0;12843;1;0;135;19;5;0;0;2;0;0;0;0;0;6;0;24701;23;7;1;237;421;27;7;0;20520;0;0;232;16;8;0;20253;11;0;276;19;9;0;11154;6;0;295;15
02.11.17;16:45:00;1;486;7856;0;2;0;13263;6;0;358;16;3;0;8798;6;2;432;19;4;0;12843;1;0;165;20;5;0;0;2;0;0;0;0;0;6;0;24701;23;2;8;468;249;28;7;0;20520;6;0;325;20;8;0;20253;6;0;331;20;9;0;11154;6;0;349;16
02.11.17;16:40:00;1;2263;7814;0;2;0;13263;6;0;369;16;3;1;8798;6;2;442;19;4;0;12843;1;0;185;20;5;0;0;2;0;0;0;0;0;6;0;24701;23;9;0;244;539;28;7;0;20520;6;0;360;20;8;0;20253;6;0;366;20;9;0;11154;6;0;382;16
02.11.17;16:35:00;1;934;7622;0;2;0;13263;6;0;387;17;3;1;8798;3;8;441;19;4;0;12843;1;0;209;21;5;0;0;2;0;0;0;0;0;6;24;24701;1;1;30;504;486;29;7;0;20520;6;0;401;21;8;0;20253;6;0;404;20;9;0;11154;6;3;408;16
02.11.17;16:30:00;1;501;7572;0;2;18;13263;6;34;384;17;3;2;8798;6;8;505;19;4;5;12843;3;5;199;21;5;0;0;2;0;0;0;0;0;6;78;24698;4;20;43;464;440;30;7;1;20520;6;8;436;21;8;1;20253;6;6;458;20;9;2;11153;6;4;504;17
02.11.17;16:25:00;1;2229;7530;0;2;44;13262;4;74;358;18;3;8;8798;6;19;475;19;4;7;12842;3;7;199;21;5;0;0;2;0;0;0;0;0;6;92;24691;4;24;45;464;440;30;7;0;20520;6;0;488;21;8;5;20253;6;11;465;21;9;2;11153;6;6;513;17
02.11.17;16:20:00;1;840;7319;0;2;39;13258;4;73;358;18;3;2;8797;6;7;510;19;4;9;12842;3;10;199;21;5;0;0;2;0;0;0;0;0;6;91;24683;4;23;42;464;440;30;7;6;20520;4;14;443;21;8;2;20253;4;7;460;21;9;2;11153;6;10;490;17
02.11.17;16:15:00;1;496;7258;0;2;0;13255;6;0;415;18;3;4;8797;6;9;505;20;4;5;12841;3;5;199;22;5;0;0;2;0;0;0;0;0;6;93;24675;4;26;52;464;440;30;7;0;20520;6;8;459;22;8;7;20252;3;17;436;21;9;0;11153;6;0;536;17
02.11.17;16:10:00;1;538;7217;0;2;32;13255;6;59;365;19;3;2;8797;6;7;508;20;4;7;12840;3;8;199;22;5;0;0;2;0;0;0;0;0;6;90;24668;4;36;72;464;440;30;7;3;20520;6;14;440;22;8;2;20252;6;7;461;22;9;0;11153;3;9;487;18
02.11.17;16:05:00;1;445;7173;0;2;66;13252;4;100;358;19;3;12;8797;3;27;499;20;4;21;12840;3;22;197;22;5;0;0;2;0;0;0;0;0;6;123;24660;4;49;76;464;440;30;7;26;20519;6;44;426;23;8;23;20251;6;44;426;22;9;6;11153;6;10;512;18
02.11.17;16:00:00;1;409;7136;0;2;114;13247;4;149;361;19;3;60;8795;4;91;401;21;4;70;12838;3;73;198;22;5;0;0;2;0;0;0;0;0;6;175;24649;4;85;104;464;440;30;7;78;20517;4;112;411;23;8;77;20250;4;110;413;22;9;8;11152;6;11;538;18
02.11.17;15:55:00;1;401;7102;0;2;77;13238;4;110;360;19;3;14;8790;3;28;487;21;4;28;12832;3;30;197;23;5;0;0;2;0;0;0;0;0;6;141;24635;4;63;95;463;440;30;7;41;20511;4;75;354;23;8;43;20243;4;77;360;23;9;5;11152;6;9;524;18
02.11.17;15:50:00;1;334;7068;0;2;64;13231;4;98;360;20;3;4;8789;6;10;520;21;4;29;12830;3;31;197;23;5;0;0;2;0;0;0;0;0;6;124;24623;4;43;71;464;440;30;7;39;20507;4;73;351;23;8;44;20240;4;74;368;23;9;7;11151;6;15;499;19
02.11.17;15:45:00;1;196;7043;0;2;99;13226;4;132;359;20;3;33;8788;6;57;502;22;4;53;12827;3;55;197;23;5;0;0;2;0;0;0;0;0;6;175;24613;4;70;96;464;440;30;7;77;20504;4;110;410;24;8;69;20236;4;110;423;23;9;0;11151;6;0;560;19
02.11.17;15:40:00;1;197;7026;0;2;217;13217;4;256;370;21;3;127;8786;4;168;488;22;4;166;12823;5;172;219;23;5;0;0;2;0;0;0;0;0;6;308;24598;4;140;152;464;440;30;7;188;20498;4;231;453;24;8;191;20230;4;235;445;23;9;100;11151;4;133;502;20
02.11.17;15:35:00;1;197;7010;0;2;192;13200;4;231;366;21;3;113;8775;4;153;491;22;4;136;12809;5;142;218;24;5;0;0;2;0;0;0;0;0;6;280;24571;4;129;152;464;440;30;7;185;20482;4;226;429;24;8;186;20215;4;227;444;24;9;99;11143;4;130;488;20
02.11.17;15:30:00;1;199;6993;0;2;164;13184;4;201;361;21;3;89;8766;4;133;483;23;4;104;12798;5;108;215;24;5;0;0;2;0;0;0;0;0;6;238;24549;4;116;144;464;440;31;7;150;20467;4;190;396;24;8;151;20199;4;186;404;24;9;71;11134;4;102;448;21
02.11.17;15:25:00;1;265;6977;0;2;207;13170;4;245;365;22;3;121;8759;4;160;475;23;4;146;12790;5;152;217;24;5;0;0;2;0;0;0;0;0;6;286;24529;4;149;169;464;453;31;7;195;20455;4;238;416;25;8;197;20187;4;235;430;24;9;93;11129;4;128;483;21
02.11.17;15:20:00;1;309;6953;0;2;277;13153;4;319;378;22;3;165;8749;4;207;485;23;4;207;12777;5;216;222;24;5;0;0;2;0;0;0;0;0;6;376;24504;4;167;208;464;535;31;7;283;20438;4;318;452;25;8;269;20170;4;312;461;25;9;134;11121;4;173;504;22
02.11.17;15:15:00;1;302;6928;0;2;286;13130;4;327;378;23;3;174;8735;4;216;485;24;4;221;12760;5;230;221;25;5;0;0;2;0;0;0;0;0;6;388;24473;4;186;231;464;531;31;7;292;20415;4;343;449;25;8;294;20148;4;337;459;25;9;153;11110;4;186;499;22
02.11.17;15:10:00;1;262;6902;0;2;299;13106;4;342;381;23;3;183;8720;4;224;477;24;4;237;12742;5;247;220;25;5;0;0;2;0;0;0;0;0;6;454;24440;4;223;260;539;534;31;7;309;20391;4;344;445;26;8;271;20123;4;334;462;25;9;156;11097;4;189;496;22
02.11.17;15:05:00;1;264;6880;0;2;429;13081;4;477;386;24;3;264;8705;4;310;489;25;4;360;12722;5;375;229;26;5;0;0;2;0;0;0;0;0;6;645;24402;4;303;332;554;546;31;7;441;20365;4;494;450;26;8;445;20101;4;489;455;26;9;230;11084;4;271;508;23
02.11.17;15:00:00;1;265;6858;0;2;431;13046;4;479;385;25;3;265;8684;4;312;477;25;4;353;12693;5;368;229;26;5;0;0;2;0;0;0;0;0;6;645;24347;4;321;349;553;549;31;7;444;20329;4;488;452;26;8;428;20065;4;488;452;26;9;236;11065;4;274;499;23
02.11.17;14:55:00;1;263;6836;0;2;399;13010;4;444;374;25;3;244;8661;4;290;480;25;4;317;12663;5;330;227;26;5;0;0;2;0;0;0;0;0;6;580;24294;4;295;317;563;545;31;7;384;20292;4;427;444;27;8;377;20028;4;417;458;27;9;194;11045;4;232;503;24
02.11.17;14:50:00;1;250;6814;0;2;402;12976;4;450;378;26;3;247;8641;4;294;485;26;4;324;12636;5;337;225;27;5;0;0;2;0;0;0;0;0;6;606;24245;4;289;318;561;532;32;7;382;20260;4;427;449;27;8;380;19997;4;424;440;27;9;197;11029;4;234;478;24
02.11.17;14:45:00;1;195;6794;0;2;410;12943;4;455;374;27;3;253;8620;4;300;483;26;4;334;12609;5;348;227;28;5;0;0;2;0;0;0;0;0;6;618;24195;4;302;335;539;539;32;7;407;20227;4;453;453;28;8;409;19965;4;454;449;28;9;217;11013;4;254;490;25
02.11.17;14:40:00;1;195;6778;0;2;379;12909;4;426;381;28;3;231;8599;4;277;480;27;4;317;12581;5;330;221;28;5;0;0;2;0;0;0;0;0;6;623;24144;4;306;337;546;534;32;7;385;20194;4;428;441;28;8;377;19931;4;424;432;28;9;199;10995;4;236;496;26
02.11.17;14:35:00;1;229;6761;0;2;677;12877;4;736;382;30;3;426;8580;4;481;486;28;4;602;12555;5;627;225;29;5;0;0;2;0;0;0;0;0;6;1113;24090;4;574;614;557;546;32;7;808;20162;4;869;450;29;8;808;19900;4;860;439;29;9;433;10978;4;481;500;27
02.11.17;14:30:00;1;238;6742;0;2;1160;12823;4;1235;382;32;3;728;8546;4;797;496;29;4;1008;12507;5;1050;231;30;5;0;0;2;0;0;0;0;0;6;1723;23994;4;864;876;565;543;33;7;1386;20098;4;1466;455;29;8;1371;19836;4;1450;460;29;9;740;10944;4;806;503;28
02.11.17;14:25:00;1;973;6722;0;2;1949;12728;4;2057;385;33;3;1184;8486;4;1268;492;30;4;1558;12425;5;1623;232;30;5;0;0;2;0;0;0;0;0;6;2834;23848;4;1447;1415;561;553;32;7;2488;19985;4;2622;455;30;8;2448;19724;4;2571;474;29;9;1338;10884;4;1424;508;29
02.11.17;14:20:00;1;2542;6627;0;2;3119;12574;4;3273;376;34;3;1920;8392;4;2023;459;30;4;2122;12299;5;2211;233;31;5;0;0;2;0;0;0;0;0;6;3524;23620;4;1800;1737;598;584;32;7;3046;19790;4;3184;448;30;8;2794;19531;4;2932;456;29;9;1524;10777;4;1618;495;30
02.11.17;14:15:00;1;2436;6423;0;2;3313;12320;4;3482;381;34;3;2226;8237;4;2347;477;30;4;2303;12125;5;2398;237;30;5;0;0;2;0;0;0;0;0;6;4230;23306;4;2180;2120;583;562;32;7;3643;19541;4;3802;436;29;8;3549;19301;4;3717;490;29;9;2020;10652;4;2131;479;30
02.11.17;14:10:00;1;2446;6219;0;2;3969;12041;4;4174;391;33;3;2505;8050;4;2640;492;30;4;2622;11933;5;2732;240;30;5;0;0;2;0;0;0;0;0;6;5014;22936;4;2574;2501;581;560;31;7;5085;19237;4;5318;452;29;8;4858;19003;4;5094;471;28;9;2740;10484;4;2898;512;30
02.11.17;14:05:00;1;2463;6015;0;2;3747;11712;4;3945;407;30;3;2474;7842;4;2612;528;28;4;2702;11714;5;2815;242;29;5;0;0;2;0;0;0;0;0;6;5171;22507;4;2687;2574;600;577;31;7;5241;18814;4;5486;462;28;8;5305;18600;4;5557;461;28;9;2977;10258;4;3146;526;28
02.11.17;14:00:00;1;4611;5788;0;2;2073;11405;4;2185;410;28;3;1389;7639;4;1485;528;27;4;1699;11491;5;1770;244;28;5;0;0;2;0;0;0;0;0;6;2734;22099;4;1379;1378;592;583;31;7;2863;18380;4;2996;464;28;8;2728;18158;4;2861;475;28;9;1474;10008;4;1561;534;27
02.11.17;13:55:00;1;3455;5389;0;2;1576;11229;4;1667;398;28;3;1007;7520;4;1084;516;27;4;1313;11347;5;1368;243;29;5;0;0;2;0;0;0;0;0;6;2239;21871;4;1130;1120;583;569;31;7;2046;18133;4;2149;472;28;8;2011;17926;4;2116;472;28;9;1076;9881;4;1165;524;27
02.11.17;13:50:00;1;2101;5127;0;2;1353;11097;4;1434;400;28;3;861;7436;4;932;513;27;4;1143;11237;5;1191;235;29;5;0;0;2;0;0;0;0;0;6;1953;21686;4;997;1009;582;566;32;7;1701;17961;4;1794;470;28;8;1691;17757;4;1778;472;28;9;918;9791;4;985;520;27